DateTime,DeltaTime,Roll,TargetAngle,Position,Power
2022-05-24 14:37:39.593,0,1.97,8.68,13,15.01
2022-05-24 14:37:39.708,0.115006417036057,1.73,8.48,13,20.05
2022-05-24 14:37:39.823,0.230002775788307,1.01,3.91,13,39.11
2022-05-24 14:37:39.938,0.344999134540558,0.62,3.94,11,33.79
2022-05-24 14:37:40.051,0.458003953099251,0.97,8.42,7,2.26
2022-05-24 14:37:40.166,0.573000311851501,1.97,14.79,7,-40.89
2022-05-24 14:37:40.294,0.701002031564713,2.58,15.19,9,-30.02
2022-05-24 14:37:40.395,0.80200731754303,2.56,12.41,12,-6.29
2022-05-24 14:37:40.510,0.91700367629528,2.52,12.13,13,3.51
2022-05-24 14:37:40.625,1.03200003504753,3.14,17.16,14,-20.97
2022-05-24 14:37:40.740,1.14700645208359,2.54,9.76,14,25.94
2022-05-24 14:37:40.854,1.26100704073906,1.58,4.82,13,40.06
2022-05-24 14:37:40.969,1.37600339949131,1.57,8.97,11,8.66
2022-05-24 14:37:41.083,1.49000398814678,1.74,10.35,10,-1.13
2022-05-24 14:37:41.194,1.60100720822811,3.2,21.11,10,-55.47
2022-05-24 14:37:41.309,1.71600356698036,3.82,19.55,12,-33.22
2022-05-24 14:37:41.423,1.83000415563583,2.96,10.11,15,21.1
2022-05-24 14:37:41.538,1.94500051438808,2.71,11.91,17,12.29
2022-05-24 14:37:41.653,2.06000693142414,1.86,6.29,16,49.09
2022-05-24 14:37:41.768,2.17500329017639,1.42,6.56,14,33.19
2022-05-24 14:37:41.882,2.28900387883186,1.63,10.08,11,8.08
2022-05-24 14:37:41.997,2.40400023758411,2.18,13.56,9,-16.71
2022-05-24 14:37:42.111,2.51800082623959,2.87,16.52,10,-33.29
2022-05-24 14:37:42.226,2.63300724327564,3.51,18.61,12,-32.91
2022-05-24 14:37:42.342,2.74899937212467,3.52,15.87,15,-8.58
2022-05-24 14:37:42.456,2.86299996078014,3.01,11.82,15,20.14
2022-05-24 14:37:42.571,2.9780063778162,2.45,9.63,15,22.17
2022-05-24 14:37:42.685,3.09200696647167,1.71,6.22,14,36.83
2022-05-24 14:37:42.799,3.20599749684334,1.45,7.44,12,22.05
2022-05-24 14:37:42.914,3.32100391387939,2.64,17.98,11,-37.17
2022-05-24 14:37:43.030,3.43700610101223,2.7,13.18,12,-2.29
2022-05-24 14:37:43.143,3.55000086128712,3.46,18.95,13,-31.33
2022-05-24 14:37:43.259,3.66600304841995,3.96,19.51,15,-23.5
2022-05-24 14:37:43.369,3.7760004401207,3.74,15.64,17,4.69
2022-05-24 14:37:43.483,3.89000102877617,2.89,9.87,17,35.81
2022-05-24 14:37:43.598,4.00499738752842,2.02,6.82,16,41.55
2022-05-24 14:37:43.713,4.12000380456448,2.1,11.19,12,11.6
2022-05-24 14:37:43.828,4.23500016331673,2.23,11.89,11,-4.45
2022-05-24 14:37:43.942,4.3490007519722,2.56,13.92,10,-13.39
2022-05-24 14:37:44.058,4.46500293910503,3.77,22,10,-55.13
2022-05-24 14:37:44.172,4.57900352776051,4.09,19.16,14,-30.11
2022-05-24 14:37:44.287,4.69399988651276,3.75,15.19,17,5.22
2022-05-24 14:37:44.401,4.80800047516823,3.44,14.14,18,14.9
2022-05-24 14:37:44.516,4.92300689220428,2.22,5.96,17,55.78
2022-05-24 14:37:44.630,5.03699742257595,2.61,14.32,15,-2.39
2022-05-24 14:37:44.745,5.15200383961201,2.46,11.42,14,14.63
2022-05-24 14:37:44.860,5.26700019836426,3.05,16.81,13,-18.18
2022-05-24 14:37:44.974,5.38100078701973,4.13,22.65,12,-44.29
2022-05-24 14:37:45.088,5.4950013756752,4.5,20.87,16,-32.27
2022-05-24 14:37:45.204,5.61100356280804,4.61,20.12,20,-10.38
2022-05-24 14:37:45.318,5.72500415146351,3.94,14.37,21,31.8
2022-05-24 14:37:45.433,5.84000051021576,2.99,9.8,21,47.4
2022-05-24 14:37:45.549,5.95600269734859,2.17,7.53,18,52.71
2022-05-24 14:37:45.658,6.06500431895256,2.08,10.38,14,20.48
2022-05-24 14:37:45.773,6.18000067770481,2.75,16.06,11,-19.62
2022-05-24 14:37:45.888,6.29500709474087,2.96,14.79,11,-15.74
2022-05-24 14:37:46.003,6.41000345349312,2.79,12.54,12,-2.6
2022-05-24 14:37:46.117,6.52400404214859,3.18,16.29,12,-19.41
2022-05-24 14:37:46.232,6.63900040090084,3.17,14.56,13,-7.54
2022-05-24 14:37:46.346,6.75300098955631,2.71,10.98,13,12.83
2022-05-24 14:37:46.461,6.86799734830856,1.41,2.76,14,48.16
2022-05-24 14:37:46.578,6.98500536382198,0.5,1.31,11,50.08
2022-05-24 14:37:46.691,7.09800012409687,0.95,8.75,7,-5.37
2022-05-24 14:37:46.805,7.21200071275234,1.79,13.47,6,-35.13
2022-05-24 14:37:46.920,7.3270071297884,2.66,16.59,6,-44.89
2022-05-24 14:37:47.034,7.44099766016006,2.66,12.85,11,-21.75
2022-05-24 14:37:47.149,7.55600407719612,2.7,13.1,13,-3.52
2022-05-24 14:37:47.264,7.67100043594837,2.87,14.32,14,-6.04
2022-05-24 14:37:47.378,7.78500102460384,2.4,9.86,14,20.16
2022-05-24 14:37:47.493,7.89999738335609,1.14,1.93,14,53.06
2022-05-24 14:37:47.608,8.01500380039215,0.36,1.36,11,47.42
2022-05-24 14:37:47.718,8.1250011920929,1.51,13.8,7,-30.58
2022-05-24 14:37:47.833,8.23999755084515,2.68,17.97,7,-51.49
2022-05-24 14:37:47.948,8.3550039678812,3,15.42,10,-27.74
2022-05-24 14:37:48.063,8.47000032663345,2.39,9.21,14,14.23
2022-05-24 14:37:48.178,8.58500674366951,2.29,11.09,15,12.8
2022-05-24 14:37:48.292,8.69900733232498,2.1,10,14,20.77
2022-05-24 14:37:48.407,8.81400369107723,1.47,5.9,14,34
2022-05-24 14:37:48.521,8.9280042797327,0.89,4.11,13,39.6
2022-05-24 14:37:48.637,9.04400646686554,1.2,9.05,10,8.44
2022-05-24 14:37:48.750,9.15700122714043,2.15,15.18,7,-29.06
2022-05-24 14:37:48.866,9.27300341427326,3.11,18.58,9,-49.6
2022-05-24 14:37:48.980,9.38700400292873,3.33,16.12,13,-20.41
2022-05-24 14:37:49.095,9.50200036168098,2.91,11.89,16,14.25
2022-05-24 14:37:49.210,9.61700677871704,2.82,12.99,17,13.04
2022-05-24 14:37:49.324,9.73100736737251,2.51,10.93,17,26.15
2022-05-24 14:37:49.439,9.84600372612476,2.07,8.85,16,33.1
2022-05-24 14:37:49.554,9.96100008487701,1.62,7.2,14,34.36
2022-05-24 14:37:49.669,10.0760065019131,2.8,18.41,11,-31.77
2022-05-24 14:37:49.779,10.1860038936138,3.21,16.51,11,-20.37
2022-05-24 14:37:49.894,10.3010002523661,3.46,16.7,14,-20.36
2022-05-24 14:37:50.008,10.4150008410215,3.9,19.12,15,-17.72
2022-05-24 14:37:50.123,10.5300072580576,4.25,19.88,17,-17.76
2022-05-24 14:37:50.237,10.6439977884293,3.51,12.57,18,28.04
2022-05-24 14:37:50.352,10.7590042054653,2.57,8.37,17,42.28
2022-05-24 14:37:50.468,10.8750063925982,2.34,10.66,14,19.84
2022-05-24 14:37:50.581,10.988001152873,2.25,11,12,8.04
2022-05-24 14:37:50.696,11.1029975116253,2.21,11.1,11,2.22
2022-05-24 14:37:50.811,11.2180039286613,3.28,19.61,11,-42.55
2022-05-24 14:37:50.925,11.3320045173168,4,20.64,12,-36
2022-05-24 14:37:51.040,11.4470008760691,4.05,17.89,17,-16.79
2022-05-24 14:37:51.155,11.5620072931051,3.24,11.31,18,35.7
2022-05-24 14:37:51.269,11.6759978234768,2.53,9.24,17,36.39
2022-05-24 14:37:51.384,11.7910042405128,2.6,12.89,14,9.91
2022-05-24 14:37:51.499,11.9060005992651,2.21,9.55,13,18.05
2022-05-24 14:37:51.613,12.0200011879206,2.11,10.47,12,8.45
2022-05-24 14:37:51.728,12.1349975466728,2.87,16.86,12,-25.78
2022-05-24 14:37:51.843,12.2500039637089,3.8,20.86,12,-36.58
2022-05-24 14:37:51.958,12.3650003224611,4.15,19.53,14,-25.44
2022-05-24 14:37:52.068,12.4749977141619,3.88,15.9,17,0.25
2022-05-24 14:37:52.183,12.5900041311979,2.71,7.87,18,47.88
2022-05-24 14:37:52.298,12.7050004899502,1.65,4.68,16,54.69
2022-05-24 14:37:52.412,12.8190010786057,1.75,10.08,12,12.14
2022-05-24 14:37:52.528,12.9350032657385,2.15,12.74,10,-10.94
2022-05-24 14:37:52.642,13.049003854394,2.15,11.06,10,-3.84
2022-05-24 14:37:52.756,13.1630044430494,2.67,15.08,9,-23.63
2022-05-24 14:37:52.871,13.2780008018017,3.16,16.7,10,-31.98
2022-05-24 14:37:52.986,13.3930072188377,2.77,11.46,14,2.01
2022-05-24 14:37:53.100,13.5069977492094,2.18,8.59,13,28.04
2022-05-24 14:37:53.214,13.6209983378649,1.18,3.22,12,41.41
2022-05-24 14:37:53.330,13.7370005249977,0.21,-0.02,9,47.75
2022-05-24 14:37:53.445,13.8520069420338,0.63,7.59,7,-8.73
2022-05-24 14:37:53.559,13.9659974724054,1.54,12.87,5,-31.11
2022-05-24 14:37:53.673,14.0799980610609,2.12,13.44,5,-34.95
2022-05-24 14:37:53.788,14.195004478097,2.09,10.72,8,-18.71
2022-05-24 14:37:53.903,14.3100008368492,2.02,10.27,10,-5.57
2022-05-24 14:37:54.014,14.4210040569305,2.04,10.68,11,-2.33
2022-05-24 14:37:54.128,14.535004645586,1.42,5.75,10,25.18
2022-05-24 14:37:54.243,14.6500010043383,0.54,1.57,10,33.77
2022-05-24 14:37:54.358,14.7649973630905,-0.21,-0.48,8,40.68
2022-05-24 14:37:54.473,14.8800037801266,0.55,8.75,5,-17.25
2022-05-24 14:37:54.587,14.994004368782,1.68,14.35,5,-45.63
2022-05-24 14:37:54.702,15.1090007275343,2.48,15.67,7,-41.1
2022-05-24 14:37:54.818,15.2250029146671,2.18,9.78,11,-0.89
2022-05-24 14:37:54.931,15.337997674942,1.87,8.7,12,13.91
2022-05-24 14:37:55.045,15.4519982635975,1.34,5.86,12,26.69
2022-05-24 14:37:55.160,15.5670046806335,0.44,1.12,12,45.93
2022-05-24 14:37:55.275,15.6820010393858,0.36,4.39,10,23.79
2022-05-24 14:37:55.390,15.796997398138,0.79,8.16,7,-0.07
2022-05-24 14:37:55.504,15.9109979867935,1.67,13.18,7,-32.46
2022-05-24 14:37:55.619,16.0260044038296,2.45,15.52,7,-34.21
2022-05-24 14:37:55.734,16.1410007625818,2.85,15.21,10,-30.37
2022-05-24 14:37:55.848,16.2550013512373,2.91,13.95,13,-10.21
2022-05-24 14:37:55.959,16.3660045713186,2.33,9.13,14,22.96
2022-05-24 14:37:56.073,16.4800051599741,1.57,5.66,14,35.39
2022-05-24 14:37:56.188,16.5950015187263,1.2,6.09,12,28.16
2022-05-24 14:37:56.304,16.7110037058592,1.17,7.5,10,12.41
2022-05-24 14:37:56.418,16.8250042945147,1.74,12.05,9,-15.52
2022-05-24 14:37:56.532,16.9390048831701,2.35,14.43,9,-24.01
2022-05-24 14:37:56.647,17.0540012419224,3.13,17.85,10,-37.19
2022-05-24 14:37:56.762,17.1689976006746,3.19,14.89,13,-13.68
2022-05-24 14:37:56.877,17.2840040177107,2.55,9.62,15,22.04
2022-05-24 14:37:56.991,17.3980046063662,1.5,4.16,15,48.81
2022-05-24 14:37:57.106,17.5130009651184,0.82,3.4,12,43.82
2022-05-24 14:37:57.220,17.6270015537739,0.74,5.73,8,17.21
2022-05-24 14:37:57.335,17.7419979125261,0.58,4.81,6,9.36
2022-05-24 14:37:57.450,17.8570043295622,1.08,9.48,5,-19.68
2022-05-24 14:37:57.564,17.9710049182177,1.55,10.98,7,-23.75
2022-05-24 14:37:57.679,18.0860012769699,1.87,11.46,7,-13.41
2022-05-24 14:37:57.794,18.2009976357222,2.01,11.12,8,-14.12
2022-05-24 14:37:57.905,18.3120008558035,1.45,6.13,7,15.04
2022-05-24 14:37:58.019,18.426001444459,0,-2.84,9,47.21
2022-05-24 14:37:58.133,18.5400020331144,-0.8,-2.78,6,46.01
2022-05-24 14:37:58.248,18.6549983918667,0.04,7.29,2,-21.88
2022-05-24 14:37:58.363,18.7700048089027,0.86,10.11,2,-39
2022-05-24 14:37:58.478,18.885001167655,1.19,9.11,4,-25.82
2022-05-24 14:37:58.593,18.9999975264072,1.48,9.98,7,-22.1
2022-05-24 14:37:58.708,19.1150039434433,1.65,10.03,9,-9.39
2022-05-24 14:37:58.822,19.2290045320988,1.49,7.96,10,6.83
2022-05-24 14:37:58.937,19.344000890851,0.56,1.42,10,39.31
2022-05-24 14:37:59.052,19.4590073078871,-0.36,-1.79,9,46.3
2022-05-24 14:37:59.167,19.5740036666393,-0.2,3.53,5,11.91
2022-05-24 14:37:59.281,19.6880042552948,0.48,8.11,4,-22.23
2022-05-24 14:37:59.396,19.8030006140471,1.03,9.5,5,-23.22
2022-05-24 14:37:59.511,19.9180070310831,1.37,9.82,5,-17.21
2022-05-24 14:37:59.621,20.0280044227839,1.67,10.62,5,-22.5
2022-05-24 14:37:59.735,20.1420050114393,1.29,6.36,8,-0.68
2022-05-24 14:37:59.851,20.2580071985722,0.49,1.72,8,31.83
2022-05-24 14:37:59.964,20.371001958847,-0.3,-1,8,36.03
2022-05-24 14:38:00.079,20.4859983175993,-0.83,-1.72,5,36.84
2022-05-24 14:38:00.194,20.6010047346354,-0.46,3.5,2,-4.34
2022-05-24 14:38:00.308,20.7150053232908,0.4,8.68,0,-34.32
2022-05-24 14:38:00.423,20.8300016820431,1.28,11.81,3,-49.86
2022-05-24 14:38:00.538,20.9449980407953,1.27,7.92,6,-9.12
2022-05-24 14:38:00.653,21.0600044578314,1.37,8.7,9,-7.51
2022-05-24 14:38:00.767,21.1740050464869,1.36,8.26,9,6.55
2022-05-24 14:38:00.883,21.2900072336197,0.61,2.37,9,31.58
2022-05-24 14:38:00.998,21.4050035923719,-0.42,-2.53,8,48.95
2022-05-24 14:38:01.112,21.5190041810274,-0.57,0.91,5,20.36
2022-05-24 14:38:01.222,21.6290015727282,0.56,10.39,3,-35.61
2022-05-24 14:38:01.337,21.7439979314804,1.59,13.58,4,-45.68
2022-05-24 14:38:01.452,21.8590043485165,1.75,10.36,6,-17.94
2022-05-24 14:38:01.566,21.9730049371719,1.53,7.85,9,-1.49
2022-05-24 14:38:01.681,22.0880012959242,1.51,8.71,11,3.14
2022-05-24 14:38:01.795,22.2020018845797,1.03,5,10,28.89
2022-05-24 14:38:01.910,22.3169982433319,0.44,2.43,9,29.82
2022-05-24 14:38:02.025,22.432004660368,0.13,2.65,8,22.38
2022-05-24 14:38:02.140,22.5470010191202,0.41,6.15,6,2.04
2022-05-24 14:38:02.254,22.6610016077757,1.42,12.85,5,-35.46
2022-05-24 14:38:02.369,22.7759979665279,2.46,16.7,7,-48.92
2022-05-24 14:38:02.483,22.8899985551834,2.44,11.94,10,-9.36
2022-05-24 14:38:02.598,23.0050049722195,2.08,9.24,14,9.81
2022-05-24 14:38:02.713,23.1200013309717,1.81,8.65,13,25.37
2022-05-24 14:38:02.828,23.234997689724,1.25,5.4,13,31.13
2022-05-24 14:38:02.938,23.3450051397085,0.63,3.01,10,40.79
2022-05-24 14:38:03.053,23.4600014984608,0.54,4.96,8,13.81
2022-05-24 14:38:03.167,23.5740020871162,1.08,9.62,7,-12.55
2022-05-24 14:38:03.282,23.6889984458685,2.19,16.01,6,-40.9
2022-05-24 14:38:03.397,23.8040048629045,2.89,16.71,8,-40.59
2022-05-24 14:38:03.512,23.9190012216568,2.35,9.39,10,7.34
2022-05-24 14:38:03.626,24.0330018103123,1.51,5.08,12,26.54
2022-05-24 14:38:03.741,24.1479981690645,0.34,-0.41,13,56.15
2022-05-24 14:38:03.856,24.2630045861006,0.0700000000000001,2.53,8,36.13
2022-05-24 14:38:03.970,24.3770051747561,1.02,11.27,5,-29.15
2022-05-24 14:38:04.085,24.4920015335083,1.29,9.19,5,-16.01
2022-05-24 14:38:04.200,24.6069978922606,1.26,7.76,6,-8.04
2022-05-24 14:38:04.314,24.720998480916,1.96,13.4,6,-33.39
2022-05-24 14:38:04.429,24.8360048979521,2.84,17.33,8,-47.63
2022-05-24 14:38:04.543,24.9500054866076,2.34,9.52,11,7.23
2022-05-24 14:38:04.659,25.0659976154566,0.98,0.99,13,51.93
2022-05-24 14:38:04.769,25.1760050654411,0.56,3.58,11,33.99
2022-05-24 14:38:04.883,25.2900056540966,0.84,7.69,8,5.05
2022-05-24 14:38:04.998,25.4050020128489,0.62,4.72,7,13.26
2022-05-24 14:38:05.113,25.5199983716011,1.01,8.7,7,-11.37
2022-05-24 14:38:05.228,25.6350047886372,2.08,15.46,6,-38.77
2022-05-24 14:38:05.342,25.7490053772926,2.73,15.93,9,-38.06
2022-05-24 14:38:05.458,25.8649975061417,2.31,9.71,12,9.1
2022-05-24 14:38:05.572,25.9789980947971,1.35,4.06,13,40.23
2022-05-24 14:38:05.687,26.0940045118332,0.61,2.37,10,43.04
2022-05-24 14:38:05.801,26.2080051004887,0.37,3.73,7,18.69
2022-05-24 14:38:05.917,26.3240072876215,0.03,2.16,6,17.8
2022-05-24 14:38:06.030,26.4370020478964,0.53,7.51,4,-11.61
2022-05-24 14:38:06.145,26.5519984066486,1.17,10.43,4,-28.07
2022-05-24 14:38:06.260,26.6670048236847,2.06,14.58,6,-42.97
2022-05-24 14:38:06.374,26.7810054123402,2.41,13.45,8,-22.79
2022-05-24 14:38:06.485,26.8919985741377,1.59,5.47,10,22.3
2022-05-24 14:38:06.600,27.0070049911737,0.58,1.14,11,41.16
2022-05-24 14:38:06.714,27.1210055798292,0.19,2.43,7,32.2
2022-05-24 14:38:06.829,27.2360019385815,0.77,8.78,6,-18.45
2022-05-24 14:38:06.945,27.3520041257143,0.56,4.55,5,11.17
2022-05-24 14:38:07.059,27.4660047143698,0.9,8.1,5,-15.74
2022-05-24 14:38:07.173,27.5800053030252,1.75,13.38,6,-36.44
2022-05-24 14:38:07.288,27.6950016617775,2.01,11.62,8,-16.51
2022-05-24 14:38:07.402,27.809002250433,1.68,7.99,10,7.56
2022-05-24 14:38:07.517,27.9239986091852,0.94,3.5,10,32.62
2022-05-24 14:38:07.633,28.0400007963181,-0.16,-1.88,9,51.62
2022-05-24 14:38:07.747,28.1540013849735,-0.13,3.17,8,13.6
2022-05-24 14:38:07.861,28.268001973629,-0.21,2.45,3,20.65
2022-05-24 14:38:07.976,28.3829983323812,0.25,6.39,3,-23.18
2022-05-24 14:38:08.091,28.4980047494173,0.54,6.69,4,-13.27
2022-05-24 14:38:08.205,28.6120053380728,1.32,11.48,4,-32.19
2022-05-24 14:38:08.316,28.7229984998703,1.61,10.43,6,-22.66
2022-05-24 14:38:08.431,28.8380049169064,1.19,5.85,8,8.29
2022-05-24 14:38:08.545,28.9520055055618,0.02,-1.58,7,46.85
2022-05-24 14:38:08.660,29.0670018643141,-1.37,-7.38,6,59.4
2022-05-24 14:38:08.774,29.1810024529696,-0.46,5.85,1,-18.12
2022-05-24 14:38:08.889,29.2959988117218,0.3,7.87,0,-34.56
2022-05-24 14:38:09.003,29.4099994003773,0.26,4.22,2,-12.69
2022-05-24 14:38:09.119,29.5260015875101,0.58,6.92,3,-20.1
2022-05-24 14:38:09.234,29.6409979462624,0.99,8.77,5,-23.88
2022-05-24 14:38:09.347,29.7540027648211,0.72,4.86,6,6.31
2022-05-24 14:38:09.463,29.8700049519539,-0.0600000000000001,-0.14,7,28.55
2022-05-24 14:38:09.578,29.9850013107061,-1.56,-8.49,6,68.03
2022-05-24 14:38:09.692,30.0990018993616,-1.43,-0.95,1,14.47
2022-05-24 14:38:09.807,30.2139982581139,-1.1,1.1,-3,-9
2022-05-24 14:38:09.917,30.3240057080984,-0.65,3.21,-3,-30.32
2022-05-24 14:38:10.032,30.4390020668507,-0.41,3.09,0,-22.25
